Probability
0 0 0 0 0 0 0 0 0 0 0 0 0 0 0 0 0 0 0 0 0 0 0 0 0 0 0 0 0 0 0 0 0 0 0 0 0 0
0 0 0 0 0 0 0 0 0 0 0 0 0 0 0 0 0 0 0 0 0 0 0 0 0 0 0 0 0 0 0 0 0 0 0 0 0 0
0 0 0 0 0 0 0 0 0 0 0 0 0 0 0 0 0 0 0 0 0 0 0 0 0 0 0 0 0 0 0 0 0 0 0 0 0 0
0 0 0 0 0 0 0 0 0 0 0 0 0 0 0 0 0 0 0 0 0 0 0 0 0 0 0 0 0 0 0 0 0 0 0 0 0 0
0 0 0 0 0 0 0 0 0 0 0 0 0 0 0 0 0 0 0 0 0 0 0 0 0 0 0 0 0 0 0 0 0 0 0 0 0 0
0 0 0 0 0 0 0 0 0 0 0 0 0 0 0 0 0 0 0 0 0 0 0 0 0 0 0 0 0 0 0 0 0 0 0 0 0 0
0 0 0 0 0 0 0 0 0 0 0 0 0 0 0 0 0 0 0 0 0 0 0 0 0 0 0 0 0 0 0 0 0 0 0 0 0 0
0 0 0 0 0 0 0 0 0 0 0 0 0 0 0 0 0 0 0 0 0 0 0 0 0 0 0 0 0 0 0 0 0 0 0 0 0 0
0 0 0 0 0 0 0 0 0 0 0 0 0 0 0 0 0 0 0 0 0 0 0 0 0 0 0 0 0 0 0 0 0 0 0 0 0 0
0 0 0 0 0 0 0 0 0 0 0 0 0 0 0 0 0 0 0 0 0 0 0 0 0 0 0 0 0 0 0 0 0 0 0 0 0 0
0 0 0 0 0 0 0 0 0 0 0 0 0 0 0 0 0 0 0 0 0 0 0 0 0 0 0 0 0 0 0 0 0 0 0 0 0 0
0 0 0 0 0 0 0 0 0 0 0 0 0 0 0 0 0 0 0 0 0 0 0 0 0 0 0 0 0 0 0 0 0 0 0 0 0 0
0 0 0 0 0 0 0 0 0 0 0 0 0 0 0 0 0 0 0 0 0 0 0 0 0 0 0 0 0 0 0 0 0 0 0 0 0 0
0 0 0 0 0 0 0 0 0 0 0 0 0 0 0 0 0 0 0 0 0 0 0 0 0 0 0 0 0 0 0 0 0 0 0 0 0 0
0 0 0 0 0 0 0 0 0 0 0 0 0 0 0 0 0 0 0 0 0 0 0 0 0 0 0 0 0 0 0 0 0 0 0 0 0 0
0 0 0 0 0 0 0 0 0 0 0 0 0 0 0 0 0 0 0 0 0 0 0 0 0 0 0 0 0 0 0 0 0 0 0 0 0 0
0 0 0 0 0 0 0 0 0 0 0 0 0 0 0 0 0 0 0 0 0 0 0 0 0 0 0 0 0 0 0 0 0 0 0 0 0 0
0 0 0 0 0 0 0 0 0 0 0 0 0 0 0 0 0 0 0 0 0 0 0 0 0 0 0 0 0 0 0 0 0 0 0 0 0 0
0 0 0 0 0 0 0 0 0 0 0 0 0 0 0 0 0 0 0 0 0 0 0 0 0 0 0 0 0 0 0 0 0 0 0 0 0 0
0 0 0 0 0 0 0 0 0 0 0 0 0 0 0 0 0 0 0 0 0 0 0 0 0 0 0 0 0 0 0 0 0 0 0 0 0 0
0 0 0 0 0 0 0 0 0 0 0 0 0 0 0 0 0 0 0 0 0 0 0 0 0 0 0 0 0 0 0 0 0 0 0 0 0 0
0 0 0 0 0 0 0 0 0 0 0 0 0 0 0 0 0 0 0 0 0 0 0 0 0 0 0 0 0 0 0 0 0 0 0 0 0 0
0 0 0 0 0 0 0 0 0 0 0 0 0 0 0 0 0 0 0 0 0 0 0 0 0 0 0 0 0 0 0 0 0 0 0 0 0 0
Wind_Speed
3 3 2 2 2 2 3 4 5 3 2 2 1 1 3 4 9 6 6 11 12 10 9 8 6 6 5 5 5 5 5 5 6 6 6 7 7 8
2 2 1 1 1 2 2 2 3 4 3 4 3 2 4 4 9 7 7 14 13 12 11 9 7 6 5 5 5 5 5 5 5 6 7 7 8 9
4 4 3 2 1 1 1 2 2 3 4 3 2 1 4 5 4 4 5 6 6 12 12 9 7 6 5 5 5 6 6 6 6 6 6 7 8 9
4 5 4 4 3 2 2 1 1 2 4 5 3 2 3 5 5 5 4 5 5 11 12 10 8 8 8 8 8 8 8 8 7 6 7 7 8 9
5 5 5 4 3 2 3 2 1 1 2 3 4 2 1 2 4 3 4 3 4 8 11 11 11 11 10 9 9 9 9 8 8 7 6 7 9 10
7 6 6 5 3 3 3 3 2 1 1 2 3 2 2 2 4 5 4 3 3 3 7 8 10 9 8 7 7 7 7 8 8 7 6 7 8 10
9 8 8 9 8 5 4 3 3 2 1 0 1 2 2 2 3 3 4 4 3 2 2 2 3 3 3 5 5 6 7 7 8 8 8 8 8 9
9 8 8 10 12 13 12 11 9 5 3 2 1 1 2 1 2 3 4 4 3 1 2 2 2 2 1 1 4 6 8 9 9 9 9 10 10 11
7 7 6 7 9 7 8 11 12 15 13 5 4 4 4 4 2 3 3 3 3 1 2 2 2 1 2 3 6 8 10 10 10 9 10 11 12 13
6 6 7 7 7 6 5 7 8 8 9 7 5 4 4 5 5 3 3 5 6 5 4 2 2 2 2 3 7 10 10 9 10 11 12 13 14 14
5 6 6 6 10 10 7 7 8 7 11 13 12 11 11 10 6 3 3 3 3 3 4 2 2 3 2 2 4 9 9 9 11 13 14 14 14 13
5 6 8 8 10 10 6 5 6 5 6 8 11 13 12 14 15 8 4 3 3 3 3 2 2 3 3 2 2 3 4 8 13 16 16 14 13 6
3 3 4 8 8 9 7 5 8 7 6 7 7 7 7 7 7 7 7 5 3 3 2 2 1 1 2 3 3 3 3 4 6 9 11 12 13 10
1 1 2 7 8 8 7 10 12 9 5 5 6 6 6 5 5 5 6 6 4 2 2 2 1 1 1 2 4 3 3 4 5 5 4 10 12 14
1 1 2 7 8 7 11 13 10 6 5 5 5 5 4 4 4 4 5 6 5 4 4 4 2 1 1 2 3 3 4 4 3 3 4 6 5 5
3 3 4 5 6 7 8 7 6 5 5 5 4 4 4 4 5 4 4 4 3 3 4 4 4 2 2 4 5 6 4 4 4 5 6 5 4 4
2 2 2 2 3 3 4 4 4 4 5 4 3 3 4 4 4 4 3 3 2 2 3 3 3 4 6 5 5 6 5 5 5 4 4 6 5 5
5 3 3 2 2 2 2 2 2 3 2 2 2 2 3 3 2 2 3 2 2 3 2 2 3 3 3 4 7 6 5 4 4 5 5 7 8 6
5 3 2 2 1 1 1 1 1 1 1 1 1 1 1 1 2 2 2 2 3 3 3 2 2 3 3 4 5 5 5 6 7 7 7 6 9 10
4 3 2 2 0 1 1 1 1 1 1 1 1 1 1 1 2 2 2 3 4 4 4 2 2 3 4 5 6 7 11 9 7 8 8 8 8 12
3 3 3 2 1 1 1 2 2 2 2 2 2 2 2 2 2 3 3 6 5 4 5 4 4 8 5 4 6 7 7 9 11 9 9 10 11 9
2 2 2 2 2 1 1 2 2 2 2 2 3 3 3 3 4 5 4 4 4 5 6 6 5 4 3 5 7 9 11 10 10 17 18 16 10 8
2 2 2 3 2 2 2 3 3 3 3 3 3 4 4 4 4 5 5 5 5 6 6 6 4 3 4 6 8 9 12 12 9 9 9 14 20 23
Wind_Direction
144 159 158 164 160 158 147 144 143 159 224 252 227 206 175 162 164 154 153 161 152 148 142 133 122 106 89 73 55 39 30 25 17 6 355 348 344 338
92 98 98 124 144 147 156 155 148 152 194 231 223 202 180 182 176 161 164 163 159 155 150 143 131 113 94 75 56 38 25 16 9 1 354 347 342 342
77 77 53 35 51 70 123 146 159 153 180 233 234 205 172 175 171 168 160 152 160 162 155 148 134 113 93 72 51 34 21 10 3 358 353 348 346 343
85 78 55 44 36 33 60 97 153 175 176 207 222 192 188 183 169 165 157 151 149 158 148 138 123 107 91 75 60 45 31 16 4 355 348 346 344 339
86 87 76 70 50 44 56 59 55 169 179 191 212 193 175 156 142 130 123 119 124 134 130 120 111 100 88 74 62 48 34 19 5 349 336 332 332 330
66 73 75 85 95 82 64 44 41 52 147 185 193 176 156 150 145 142 129 110 97 96 112 107 96 86 75 64 54 42 31 20 10 357 343 333 324 320
44 44 47 52 70 82 83 59 49 48 45 139 179 158 149 142 159 149 139 123 77 66 96 85 77 67 50 36 37 33 40 43 38 28 14 0 348 336
37 33 37 39 36 40 54 60 61 57 45 35 36 111 87 73 112 132 134 138 132 40 83 62 58 58 24 15 20 43 62 57 44 33 23 15 7 357
48 41 39 37 40 27 38 52 52 55 56 58 49 42 44 17 49 86 86 92 101 52 63 64 30 16 356 17 35 70 61 42 30 22 13 5 356 345
60 52 42 24 39 41 59 69 62 57 64 63 63 49 46 34 38 61 83 92 82 37 30 86 21 352 351 2 54 55 35 29 22 13 2 351 342 334
64 59 51 25 41 56 65 72 63 47 56 73 80 77 71 67 60 56 68 97 100 57 17 66 23 334 324 338 28 24 16 13 9 357 345 337 332 329
51 37 39 41 51 61 49 62 71 54 61 74 68 61 56 54 54 47 39 68 91 90 22 41 26 355 331 323 333 346 353 355 351 341 333 329 329 329
67 32 13 32 44 58 55 55 81 79 71 79 73 64 56 50 44 42 40 44 63 81 43 35 32 9 345 320 318 324 341 339 331 321 322 325 328 330
54 9 13 46 52 55 57 64 67 67 64 69 66 58 51 44 38 39 39 42 45 48 10 23 21 4 338 304 293 309 315 301 298 301 303 321 323 321
321 291 58 69 59 41 62 64 59 56 60 64 60 50 38 34 33 26 22 21 24 38 43 35 23 345 266 259 281 290 308 296 292 295 304 306 299 303
13 17 41 82 76 67 59 52 50 65 70 63 55 39 30 33 34 20 14 9 16 12 7 7 1 338 278 263 268 273 262 274 296 299 295 286 280 283
71 56 49 65 85 79 74 67 60 59 62 57 49 41 36 30 21 10 3 1 357 334 324 327 321 293 262 251 264 270 275 270 263 276 291 298 289 281
72 51 49 60 77 82 80 73 67 75 74 68 59 39 31 16 4 353 350 340 316 302 296 294 307 311 301 278 239 259 275 282 290 301 304 301 297 289
52 43 36 35 68 102 111 113 106 95 98 79 78 50 355 346 340 332 329 319 303 293 286 286 303 321 319 306 292 280 296 303 304 301 295 291 294 297
29 21 4 345 302 196 180 171 175 181 175 175 197 249 282 293 296 297 298 290 294 295 294 283 272 286 290 301 295 285 289 285 286 291 294 292 284 289
15 11 2 350 332 277 226 208 205 216 219 215 229 243 250 253 265 272 273 292 298 292 291 284 261 299 301 288 279 279 278 280 287 287 291 294 297 295
332 331 330 332 329 305 271 250 242 241 237 233 239 244 246 245 253 260 258 261 262 263 272 278 276 281 253 267 276 281 289 295 290 290 283 275 279 285
284 288 290 294 291 277 259 254 250 248 241 236 239 241 240 242 245 249 253 255 258 265 274 283 285 264 260 265 275 279 285 294 299 296 286 283 281 277